Tracking 18984 objects as of 24-Feb-2018
HD Live streaming from Space Station
objects crossing your sky now

BREEZE-KM DEB

Track BREEZE-KM DEB now!
10-day predictions


NORAD ID: 41719
Int'l Code: 2015-020G
Perigee: 1,197.0 km
Apogee: 1,540.1 km
Inclination: 82.5 °
Period: 112.9 minutes
Semi major axis: 7739 km
RCS: Unknown
Launch date: March 31, 2015
Source: Commonwealth of Independent States (former USSR) (CIS)
Launch site: PLESETSK MISSILE AND SPACE COMPLEX (PKMTR)

Note: This is SATELLITE DEBRIS
aabbcc
Your satellite tracking list
Your tracking list is empty




NASA's NSSDC Master Catalog

Two Line Element Set (TLE):
1 41719U 15020G   18053.04672614 +.00000004 +00000-0 -24017-4 0  9990
2 41719 082.4879 082.5412 0221701 329.6762 029.1659 12.75057885125381
Source of the keplerian elements: AFSPC